Time,TemperatureF,DewpointF,PressureIn,WindDirection,WindDirectionDegrees,WindSpeedMPH,WindSpeedGustMPH,Humidity,HourlyPrecipIn,Conditions,Clouds,dailyrainin,SoftwareType,DateUTC
2014-02-15 00:02:00,38.5,37.5,29.67,West,271,3.0,5.0,96,0.00,,,0.12,Wunderground v.1.15,2014-02-15 05:02:00,
2014-02-15 00:03:00,38.6,37.6,29.67,WSW,254,4.0,5.0,96,0.00,,,0.12,Wunderground v.1.15,2014-02-15 05:03:00,
2014-02-15 00:05:00,38.6,37.6,29.67,WNW,300,4.0,5.0,96,0.00,,,0.12,Wunderground v.1.15,2014-02-15 05:05:00,
2014-02-15 00:06:00,38.7,37.7,29.67,West,281,4.0,5.0,96,0.00,,,0.12,Wunderground v.1.15,2014-02-15 05:06:00,
2014-02-15 00:08:00,38.7,37.7,29.67,WNW,285,5.0,5.0,96,0.00,,,0.12,Wunderground v.1.15,2014-02-15 05:08:00,
2014-02-15 00:13:00,38.7,37.4,29.67,WNW,288,4.0,5.0,95,0.00,,,0.12,Wunderground v.1.15,2014-02-15 05:13:00,
2014-02-15 00:14:00,38.8,37.5,29.67,West,281,2.0,5.0,95,0.00,,,0.12,Wunderground v.1.15,2014-02-15 05:14:00,
2014-02-15 00:20:00,38.6,36.8,29.67,WNW,285,10.0,10.0,93,0.00,,,0.13,Wunderground v.1.15,2014-02-15 05:20:00,
2014-02-15 00:26:00,37.3,35.2,29.67,WNW,302,6.0,11.0,92,0.00,,,0.13,Wunderground v.1.15,2014-02-15 05:26:00,
2014-02-15 00:31:00,36.5,34.4,29.68,NW,326,6.0,9.0,92,0.00,,,0.13,Wunderground v.1.15,2014-02-15 05:31:00,
2014-02-15 00:37:00,35.9,34.1,29.68,NW,313,11.0,11.0,93,0.00,,,0.13,Wunderground v.1.15,2014-02-15 05:37:00,
2014-02-15 00:43:00,35.5,33.9,29.68,West,277,6.0,13.0,94,0.00,,,0.13,Wunderground v.1.15,2014-02-15 05:43:00,
2014-02-15 00:49:00,35.3,33.5,29.68,West,271,10.0,13.0,93,0.00,,,0.00,Wunderground v.1.15,2014-02-15 05:49:00,
2014-02-15 00:55:00,35.3,33.2,29.68,WNW,282,9.0,15.0,92,0.00,,,0.00,Wunderground v.1.15,2014-02-15 05:55:00,
2014-02-15 00:58:00,35.2,33.1,29.68,NNW,330,5.0,15.0,92,0.00,,,0.00,Wunderground v.1.15,2014-02-15 05:58:00,
2014-02-15 01:03:00,35.1,33.0,29.68,WNW,291,7.0,9.0,92,0.00,,,0.00,Wunderground v.1.15,2014-02-15 06:03:00,
2014-02-15 01:08:00,35.0,32.9,29.68,WNW,283,10.0,13.0,92,0.00,,,0.00,Wunderground v.1.15,2014-02-15 06:08:00,
2014-02-15 01:14:00,34.8,32.4,29.68,West,275,11.0,17.0,91,0.00,,,0.00,Wunderground v.1.15,2014-02-15 06:14:00,
2014-02-15 01:20:00,34.7,32.6,29.69,WNW,293,11.0,17.0,92,0.00,,,0.00,Wunderground v.1.15,2014-02-15 06:20:00,
2014-02-15 01:25:00,34.4,32.3,29.69,WSW,245,16.0,16.0,92,0.00,,,0.00,Wunderground v.1.15,2014-02-15 06:25:00,
2014-02-15 01:31:00,33.9,32.1,29.70,WSW,245,10.0,11.0,93,0.00,,,0.00,Wunderground v.1.15,2014-02-15 06:31:00,
2014-02-15 01:36:00,33.6,31.8,29.70,West,266,11.0,11.0,93,0.00,,,0.00,Wunderground v.1.15,2014-02-15 06:36:00,
2014-02-15 01:42:00,33.1,31.3,29.70,West,271,8.0,10.0,93,0.00,,,0.00,Wunderground v.1.15,2014-02-15 06:42:00,
2014-02-15 01:48:00,32.5,31.0,29.71,West,281,10.0,16.0,94,0.00,,,0.00,Wunderground v.1.15,2014-02-15 06:48:00,
2014-02-15 01:54:00,31.8,30.5,29.71,WNW,291,9.0,12.0,95,0.00,,,0.00,Wunderground v.1.15,2014-02-15 06:54:00,
2014-02-15 01:59:00,31.4,30.1,29.71,WNW,295,11.0,18.0,95,0.00,,,0.00,Wunderground v.1.15,2014-02-15 06:59:00,
2014-02-15 02:04:00,31.1,29.8,29.73,West,271,17.0,24.0,95,0.00,,,0.00,Wunderground v.1.15,2014-02-15 07:04:00,
2014-02-15 02:09:00,30.9,29.6,29.73,NW,310,7.0,24.0,95,0.00,,,0.00,Wunderground v.1.15,2014-02-15 07:09:00,
2014-02-15 02:14:00,30.7,29.4,29.73,West,262,18.0,20.0,95,0.00,,,0.00,Wunderground v.1.15,2014-02-15 07:14:00,
2014-02-15 02:19:00,30.2,28.9,29.74,West,280,17.0,24.0,95,0.00,,,0.00,Wunderground v.1.15,2014-02-15 07:19:00,
2014-02-15 02:24:00,29.9,28.6,29.74,WNW,300,17.0,17.0,95,0.00,,,0.00,Wunderground v.1.15,2014-02-15 07:24:00,
2014-02-15 02:29:00,29.8,28.5,29.74,NW,311,7.0,19.0,95,0.00,,,0.00,Wunderground v.1.15,2014-02-15 07:29:00,
2014-02-15 02:34:00,29.6,28.1,29.76,West,270,9.0,22.0,94,0.00,,,0.00,Wunderground v.1.15,2014-02-15 07:34:00,
2014-02-15 02:39:00,29.6,28.1,29.76,NNW,333,7.0,22.0,94,0.00,,,0.00,Wunderground v.1.15,2014-02-15 07:39:00,
2014-02-15 02:44:00,29.5,28.0,29.76,WNW,289,14.0,19.0,94,0.00,,,0.00,Wunderground v.1.15,2014-02-15 07:44:00,
2014-02-15 02:49:00,29.5,28.0,29.78,West,271,3.0,19.0,94,0.00,,,0.00,Wunderground v.1.15,2014-02-15 07:49:00,
2014-02-15 02:54:00,29.4,27.9,29.78,West,271,2.0,10.0,94,0.00,,,0.00,Wunderground v.1.15,2014-02-15 07:54:00,
2014-02-15 02:59:00,29.3,27.8,29.78,NW,311,11.0,23.0,94,0.00,,,0.00,Wunderground v.1.15,2014-02-15 07:59:00,
2014-02-15 03:04:00,28.9,27.4,29.80,WNW,303,5.0,16.0,94,0.00,,,0.00,Wunderground v.1.15,2014-02-15 08:04:00,
2014-02-15 03:10:00,28.5,27.0,29.80,WNW,289,6.0,6.0,94,0.00,,,0.00,Wunderground v.1.15,2014-02-15 08:10:00,
2014-02-15 03:15:00,28.2,27.0,29.82,West,279,5.0,12.0,95,0.00,,,0.00,Wunderground v.1.15,2014-02-15 08:15:00,
2014-02-15 03:20:00,28.2,27.0,29.82,WNW,289,10.0,11.0,95,0.00,,,0.00,Wunderground v.1.15,2014-02-15 08:20:00,
2014-02-15 03:25:00,28.1,26.9,29.82,North,1,7.0,14.0,95,0.00,,,0.00,Wunderground v.1.15,2014-02-15 08:25:00,
2014-02-15 03:30:00,28.1,26.9,29.82,West,277,5.0,6.0,95,0.00,,,0.00,Wunderground v.1.15,2014-02-15 08:30:00,
2014-02-15 03:35:00,28.1,26.9,29.83,NW,308,8.0,16.0,95,0.00,,,0.00,Wunderground v.1.15,2014-02-15 08:35:00,
2014-02-15 03:40:00,27.9,26.4,29.83,WNW,295,4.0,8.0,94,0.00,,,0.00,Wunderground v.1.15,2014-02-15 08:40:00,
2014-02-15 03:45:00,27.7,25.9,29.83,WNW,302,10.0,14.0,93,0.00,,,0.00,Wunderground v.1.15,2014-02-15 08:45:00,
2014-02-15 03:50:00,27.4,25.6,29.83,WNW,298,10.0,12.0,93,0.00,,,0.00,Wunderground v.1.15,2014-02-15 08:50:00,
2014-02-15 03:55:00,27.1,25.3,29.83,WNW,288,10.0,15.0,93,0.00,,,0.00,Wunderground v.1.15,2014-02-15 08:55:00,
2014-02-15 04:00:00,27.0,25.2,29.85,West,280,5.0,12.0,93,0.00,,,0.00,Wunderground v.1.15,2014-02-15 09:00:00,
2014-02-15 04:05:00,26.9,24.9,29.85,WNW,283,5.0,15.0,92,0.00,,,0.00,Wunderground v.1.15,2014-02-15 09:05:00,
2014-02-15 04:10:00,26.9,25.1,29.85,West,280,7.0,16.0,93,0.00,,,0.00,Wunderground v.1.15,2014-02-15 09:10:00,
2014-02-15 04:15:00,26.8,25.0,29.86,WNW,288,3.0,16.0,93,0.00,,,0.00,Wunderground v.1.15,2014-02-15 09:15:00,
2014-02-15 04:20:00,26.8,25.0,29.86,WNW,297,10.0,13.0,93,0.00,,,0.00,Wunderground v.1.15,2014-02-15 09:20:00,
2014-02-15 04:25:00,26.7,24.9,29.86,WNW,290,14.0,15.0,93,0.00,,,0.00,Wunderground v.1.15,2014-02-15 09:25:00,
2014-02-15 04:30:00,26.6,24.8,29.87,NW,307,6.0,8.0,93,0.00,,,0.00,Wunderground v.1.15,2014-02-15 09:30:00,
2014-02-15 04:35:00,26.3,24.3,29.87,West,271,6.0,18.0,92,0.00,,,0.00,Wunderground v.1.15,2014-02-15 09:35:00,
2014-02-15 04:40:00,26.0,24.3,29.87,West,278,7.0,8.0,93,0.00,,,0.00,Wunderground v.1.15,2014-02-15 09:40:00,
2014-02-15 04:45:00,25.9,24.2,29.89,West,270,6.0,12.0,93,0.00,,,0.00,Wunderground v.1.15,2014-02-15 09:45:00,
2014-02-15 04:50:00,25.8,24.1,29.89,WNW,299,7.0,7.0,93,0.00,,,0.00,Wunderground v.1.15,2014-02-15 09:50:00,
2014-02-15 04:55:00,25.8,24.1,29.89,West,276,12.0,13.0,93,0.00,,,0.00,Wunderground v.1.15,2014-02-15 09:55:00,
2014-02-15 05:00:00,25.6,23.9,29.91,WNW,297,3.0,9.0,93,0.00,,,0.00,Wunderground v.1.15,2014-02-15 10:00:00,
2014-02-15 05:05:00,25.5,23.8,29.91,WNW,301,5.0,13.0,93,0.00,,,0.00,Wunderground v.1.15,2014-02-15 10:05:00,
2014-02-15 05:10:00,25.3,23.6,29.91,West,271,7.0,10.0,93,0.00,,,0.00,Wunderground v.1.15,2014-02-15 10:10:00,
2014-02-15 05:15:00,25.1,23.4,29.92,NNW,337,2.0,13.0,93,0.00,,,0.00,Wunderground v.1.15,2014-02-15 10:15:00,
2014-02-15 05:20:00,25.1,23.4,29.92,NW,311,1.0,6.0,93,0.00,,,0.00,Wunderground v.1.15,2014-02-15 10:20:00,
2014-02-15 05:24:00,25.1,23.4,29.92,NNW,332,3.0,6.0,93,0.00,,,0.00,Wunderground v.1.15,2014-02-15 10:24:00,
2014-02-15 05:26:00,25.2,23.5,29.92,NW,321,1.0,6.0,93,0.00,,,0.00,Wunderground v.1.15,2014-02-15 10:26:00,
2014-02-15 05:28:00,25.2,23.5,29.92,NNW,330,6.0,10.0,93,0.00,,,0.00,Wunderground v.1.15,2014-02-15 10:28:00,
2014-02-15 05:29:00,25.2,23.5,29.92,West,276,3.0,10.0,93,0.00,,,0.00,Wunderground v.1.15,2014-02-15 10:29:00,
2014-02-15 05:31:00,25.2,23.5,29.93,West,267,3.0,9.0,93,0.00,,,0.00,Wunderground v.1.15,2014-02-15 10:31:00,
2014-02-15 05:34:00,25.2,23.5,29.93,WNW,303,10.0,16.0,93,0.00,,,0.00,Wunderground v.1.15,2014-02-15 10:34:00,
2014-02-15 05:35:00,25.3,23.3,29.93,West,271,6.0,16.0,92,0.00,,,0.00,Wunderground v.1.15,2014-02-15 10:35:00,
2014-02-15 05:37:00,25.3,23.3,29.93,West,278,4.0,16.0,92,0.00,,,0.00,Wunderground v.1.15,2014-02-15 10:37:00,
2014-02-15 05:39:00,25.3,23.3,29.93,WSW,254,5.0,16.0,92,0.00,,,0.00,Wunderground v.1.15,2014-02-15 10:39:00,
2014-02-15 05:40:00,25.3,23.6,29.93,West,263,4.0,7.0,93,0.00,,,0.00,Wunderground v.1.15,2014-02-15 10:40:00,
2014-02-15 05:42:00,25.3,23.3,29.93,West,273,5.0,9.0,92,0.00,,,0.00,Wunderground v.1.15,2014-02-15 10:42:00,
2014-02-15 05:43:00,25.3,23.3,29.93,WNW,303,5.0,9.0,92,0.00,,,0.00,Wunderground v.1.15,2014-02-15 10:43:00,
2014-02-15 05:47:00,25.4,23.7,29.94,WNW,283,5.0,10.0,93,0.00,,,0.00,Wunderground v.1.15,2014-02-15 10:47:00,
2014-02-15 05:50:00,25.3,23.3,29.94,WNW,297,6.0,13.0,92,0.00,,,0.00,Wunderground v.1.15,2014-02-15 10:50:00,
2014-02-15 05:52:00,25.2,22.9,29.94,West,267,4.0,15.0,91,0.00,,,0.00,Wunderground v.1.15,2014-02-15 10:52:00,
2014-02-15 05:55:00,25.0,22.7,29.94,West,277,11.0,15.0,91,0.00,,,0.00,Wunderground v.1.15,2014-02-15 10:55:00,
2014-02-15 05:56:00,24.9,22.6,29.94,West,276,9.0,15.0,91,0.00,,,0.00,Wunderground v.1.15,2014-02-15 10:56:00,
2014-02-15 05:57:00,24.9,22.6,29.94,NNW,330,4.0,15.0,91,0.00,,,0.00,Wunderground v.1.15,2014-02-15 10:57:00,
2014-02-15 05:59:00,24.9,22.6,29.94,WNW,282,13.0,15.0,91,0.00,,,0.00,Wunderground v.1.15,2014-02-15 10:59:00,
2014-02-15 06:01:00,24.8,22.3,29.96,NW,307,6.0,11.0,90,0.00,,,0.00,Wunderground v.1.15,2014-02-15 11:01:00,
2014-02-15 06:06:00,24.6,22.1,29.96,NW,321,10.0,17.0,90,0.00,,,0.00,Wunderground v.1.15,2014-02-15 11:06:00,
2014-02-15 06:07:00,24.6,21.8,29.96,WNW,295,6.0,17.0,89,0.00,,,0.00,Wunderground v.1.15,2014-02-15 11:07:00,
2014-02-15 06:09:00,24.5,21.7,29.96,WNW,291,6.0,17.0,89,0.00,,,0.00,Wunderground v.1.15,2014-02-15 11:09:00,
2014-02-15 06:14:00,24.3,21.3,29.96,NW,309,5.0,15.0,88,0.00,,,0.00,Wunderground v.1.15,2014-02-15 11:14:00,
2014-02-15 06:15:00,24.2,21.2,29.97,West,274,4.0,15.0,88,0.00,,,0.00,Wunderground v.1.15,2014-02-15 11:15:00,
2014-02-15 06:19:00,24.1,21.1,29.97,West,271,3.0,15.0,88,0.00,,,0.00,Wunderground v.1.15,2014-02-15 11:19:00,
2014-02-15 06:20:00,24.0,21.0,29.97,NW,326,8.0,8.0,88,0.00,,,0.00,Wunderground v.1.15,2014-02-15 11:20:00,
2014-02-15 06:24:00,23.8,20.5,29.97,WNW,284,7.0,11.0,87,0.00,,,0.00,Wunderground v.1.15,2014-02-15 11:24:00,
2014-02-15 06:25:00,23.8,20.5,29.97,NW,307,6.0,11.0,87,0.00,,,0.00,Wunderground v.1.15,2014-02-15 11:25:00,
2014-02-15 06:28:00,23.6,20.0,29.97,NW,306,13.0,18.0,86,0.00,,,0.00,Wunderground v.1.15,2014-02-15 11:28:00,
2014-02-15 06:31:00,23.1,19.5,29.99,West,279,4.0,8.0,86,0.00,,,0.00,Wunderground v.1.15,2014-02-15 11:31:00,
2014-02-15 06:35:00,23.0,19.2,29.99,NW,316,10.0,14.0,85,0.00,,,0.00,Wunderground v.1.15,2014-02-15 11:35:00,
2014-02-15 06:39:00,22.6,18.8,29.99,WNW,286,11.0,14.0,85,0.00,,,0.00,Wunderground v.1.15,2014-02-15 11:39:00,
2014-02-15 06:42:00,22.5,18.7,29.99,WNW,284,5.0,11.0,85,0.00,,,0.00,Wunderground v.1.15,2014-02-15 11:42:00,
2014-02-15 06:45:00,22.3,18.5,29.99,NW,319,4.0,17.0,85,0.00,,,0.00,Wunderground v.1.15,2014-02-15 11:45:00,
2014-02-15 06:46:00,22.3,18.5,30.00,NW,314,6.0,17.0,85,0.00,,,0.00,Wunderground v.1.15,2014-02-15 11:46:00,
2014-02-15 06:47:00,22.2,18.4,30.00,NW,324,5.0,17.0,85,0.00,,,0.00,Wunderground v.1.15,2014-02-15 11:47:00,
2014-02-15 06:49:00,22.1,18.3,30.00,North,1,2.0,17.0,85,0.00,,,0.00,Wunderground v.1.15,2014-02-15 11:49:00,
2014-02-15 06:54:00,21.9,18.4,30.00,NNW,344,4.0,9.0,86,0.00,,,0.00,Wunderground v.1.15,2014-02-15 11:54:00,
2014-02-15 06:59:00,21.9,18.4,30.00,WNW,301,3.0,9.0,86,0.00,,,0.00,Wunderground v.1.15,2014-02-15 11:59:00,
2014-02-15 07:03:00,21.8,18.3,30.01,North,355,3.0,5.0,86,0.00,,,0.00,Wunderground v.1.15,2014-02-15 12:03:00,
2014-02-15 07:06:00,21.8,18.3,30.01,NW,312,5.0,11.0,86,0.00,,,0.00,Wunderground v.1.15,2014-02-15 12:06:00,
2014-02-15 07:07:00,21.7,18.2,30.01,West,278,7.0,11.0,86,0.00,,,0.00,Wunderground v.1.15,2014-02-15 12:07:00,
2014-02-15 07:09:00,21.6,18.1,30.01,WNW,303,5.0,14.0,86,0.00,,,0.00,Wunderground v.1.15,2014-02-15 12:09:00,
2014-02-15 07:11:00,21.6,18.1,30.01,WNW,293,7.0,10.0,86,0.00,,,0.00,Wunderground v.1.15,2014-02-15 12:11:00,
2014-02-15 07:12:00,21.5,18.0,30.01,NW,309,4.0,10.0,86,0.00,,,0.00,Wunderground v.1.15,2014-02-15 12:12:00,
2014-02-15 07:14:00,21.5,18.0,30.01,WNW,301,10.0,12.0,86,0.00,,,0.00,Wunderground v.1.15,2014-02-15 12:14:00,
2014-02-15 07:18:00,21.4,17.9,30.02,WNW,289,5.0,12.0,86,0.00,,,0.00,Wunderground v.1.15,2014-02-15 12:18:00,
2014-02-15 07:22:00,21.2,17.4,30.02,WNW,283,4.0,7.0,85,0.00,,,0.00,Wunderground v.1.15,2014-02-15 12:22:00,
2014-02-15 07:23:00,21.2,17.7,30.02,NW,320,4.0,7.0,86,0.00,,,0.00,Wunderground v.1.15,2014-02-15 12:23:00,
2014-02-15 07:28:00,21.2,17.7,30.02,NW,318,8.0,8.0,86,0.00,,,0.00,Wunderground v.1.15,2014-02-15 12:28:00,
2014-02-15 07:30:00,21.2,17.7,30.02,WNW,298,3.0,5.0,86,0.00,,,0.00,Wunderground v.1.15,2014-02-15 12:30:00,
2014-02-15 07:33:00,21.2,17.7,30.02,WNW,288,4.0,6.0,86,0.00,,,0.00,Wunderground v.1.15,2014-02-15 12:33:00,
2014-02-15 07:37:00,20.9,17.1,30.02,NW,307,7.0,13.0,85,0.00,,,0.00,Wunderground v.1.15,2014-02-15 12:37:00,
2014-02-15 07:39:00,20.9,17.4,30.02,WNW,288,6.0,13.0,86,0.00,,,0.00,Wunderground v.1.15,2014-02-15 12:39:00,
2014-02-15 07:40:00,21.0,17.5,30.02,NW,326,2.0,6.0,86,0.00,,,0.00,Wunderground v.1.15,2014-02-15 12:40:00,
2014-02-15 07:44:00,21.0,17.7,30.02,NW,305,4.0,7.0,87,0.00,,,0.00,Wunderground v.1.15,2014-02-15 12:44:00,
2014-02-15 07:45:00,21.0,17.7,30.03,WNW,292,1.0,7.0,87,0.00,,,0.00,Wunderground v.1.15,2014-02-15 12:45:00,
2014-02-15 07:47:00,21.0,17.7,30.03,WNW,288,9.0,14.0,87,0.00,,,0.00,Wunderground v.1.15,2014-02-15 12:47:00,
2014-02-15 07:49:00,20.9,17.4,30.03,NW,305,5.0,14.0,86,0.00,,,0.00,Wunderground v.1.15,2014-02-15 12:49:00,
2014-02-15 07:51:00,20.9,17.4,30.03,NW,307,4.0,6.0,86,0.00,,,0.00,Wunderground v.1.15,2014-02-15 12:51:00,
2014-02-15 07:55:00,20.8,17.5,30.03,West,276,5.0,7.0,87,0.00,,,0.00,Wunderground v.1.15,2014-02-15 12:55:00,
2014-02-15 08:00:00,20.8,17.3,30.05,WNW,303,2.0,4.0,86,0.00,,,0.00,Wunderground v.1.15,2014-02-15 13:00:00,
2014-02-15 08:02:00,20.8,17.3,30.05,NW,314,3.0,5.0,86,0.00,,,0.00,Wunderground v.1.15,2014-02-15 13:02:00,
2014-02-15 08:03:00,20.7,17.2,30.05,NNW,342,5.0,6.0,86,0.00,,,0.00,Wunderground v.1.15,2014-02-15 13:03:00,
2014-02-15 08:06:00,20.7,17.4,30.05,WNW,293,2.0,6.0,87,0.00,,,0.00,Wunderground v.1.15,2014-02-15 13:06:00,
2014-02-15 08:07:00,20.7,17.4,30.05,NNW,328,3.0,6.0,87,0.00,,,0.00,Wunderground v.1.15,2014-02-15 13:07:00,
2014-02-15 08:08:00,20.7,17.2,30.05,NW,304,4.0,6.0,86,0.00,,,0.00,Wunderground v.1.15,2014-02-15 13:08:00,
2014-02-15 08:10:00,20.6,17.1,30.05,WNW,303,2.0,6.0,86,0.00,,,0.00,Wunderground v.1.15,2014-02-15 13:10:00,
2014-02-15 08:11:00,20.6,17.1,30.05,West,281,2.0,6.0,86,0.00,,,0.00,Wunderground v.1.15,2014-02-15 13:11:00,
2014-02-15 08:16:00,20.6,17.1,30.06,NW,309,3.0,10.0,86,0.00,,,0.00,Wunderground v.1.15,2014-02-15 13:16:00,
2014-02-15 08:19:00,20.6,17.1,30.06,WNW,286,2.0,10.0,86,0.00,,,0.00,Wunderground v.1.15,2014-02-15 13:19:00,
2014-02-15 08:21:00,20.6,17.1,30.06,WNW,288,2.0,5.0,86,0.00,,,0.00,Wunderground v.1.15,2014-02-15 13:21:00,
2014-02-15 08:22:00,20.7,16.9,30.06,WNW,295,3.0,5.0,85,0.00,,,0.00,Wunderground v.1.15,2014-02-15 13:22:00,
2014-02-15 08:27:00,20.8,17.0,30.06,NW,308,7.0,7.0,85,0.00,,,0.00,Wunderground v.1.15,2014-02-15 13:27:00,
2014-02-15 08:29:00,20.9,17.1,30.06,NNW,331,7.0,8.0,85,0.00,,,0.00,Wunderground v.1.15,2014-02-15 13:29:00,
2014-02-15 08:30:00,20.9,17.4,30.07,WNW,283,4.0,5.0,86,0.00,,,0.00,Wunderground v.1.15,2014-02-15 13:30:00,
2014-02-15 08:34:00,21.1,17.3,30.07,NW,316,4.0,7.0,85,0.00,,,0.00,Wunderground v.1.15,2014-02-15 13:34:00,
2014-02-15 08:36:00,21.2,17.4,30.07,NW,316,3.0,7.0,85,0.00,,,0.00,Wunderground v.1.15,2014-02-15 13:36:00,
2014-02-15 08:38:00,21.2,17.4,30.07,NW,307,2.0,10.0,85,0.00,,,0.00,Wunderground v.1.15,2014-02-15 13:38:00,
2014-02-15 08:39:00,21.2,17.4,30.07,WNW,282,5.0,10.0,85,0.00,,,0.00,Wunderground v.1.15,2014-02-15 13:39:00,
2014-02-15 08:41:00,21.3,17.5,30.07,NW,313,4.0,8.0,85,0.00,,,0.00,Wunderground v.1.15,2014-02-15 13:41:00,
2014-02-15 08:45:00,21.4,17.9,30.07,NW,321,2.0,11.0,86,0.00,,,0.00,Wunderground v.1.15,2014-02-15 13:45:00,
2014-02-15 08:47:00,21.3,17.5,30.08,WNW,299,3.0,11.0,85,0.00,,,0.00,Wunderground v.1.15,2014-02-15 13:47:00,
2014-02-15 08:48:00,21.3,17.8,30.08,West,281,5.0,11.0,86,0.00,,,0.00,Wunderground v.1.15,2014-02-15 13:48:00,
2014-02-15 08:50:00,21.3,17.8,30.08,NW,311,8.0,8.0,86,0.00,,,0.00,Wunderground v.1.15,2014-02-15 13:50:00,
2014-02-15 08:52:00,21.3,17.8,30.08,WNW,295,3.0,8.0,86,0.00,,,0.00,Wunderground v.1.15,2014-02-15 13:52:00,
2014-02-15 08:55:00,21.3,17.8,30.08,NNW,339,3.0,8.0,86,0.00,,,0.00,Wunderground v.1.15,2014-02-15 13:55:00,
2014-02-15 08:57:00,21.4,17.9,30.08,North,351,3.0,8.0,86,0.00,,,0.00,Wunderground v.1.15,2014-02-15 13:57:00,
2014-02-15 09:00:00,21.5,17.7,30.09,NW,318,3.0,6.0,85,0.00,,,0.00,Wunderground v.1.15,2014-02-15 14:00:00,
2014-02-15 09:03:00,21.5,18.0,30.09,WNW,300,2.0,6.0,86,0.00,,,0.00,Wunderground v.1.15,2014-02-15 14:03:00,
2014-02-15 09:05:00,21.5,18.0,30.09,West,276,1.0,6.0,86,0.00,,,0.00,Wunderground v.1.15,2014-02-15 14:05:00,
2014-02-15 09:06:00,21.5,17.7,30.09,North,350,3.0,6.0,85,0.00,,,0.00,Wunderground v.1.15,2014-02-15 14:06:00,
2014-02-15 09:08:00,21.5,17.7,30.09,North,350,0.0,6.0,85,0.00,,,0.00,Wunderground v.1.15,2014-02-15 14:08:00,
2014-02-15 09:13:00,21.7,17.9,30.09,North,349,2.0,2.0,85,0.00,,,0.00,Wunderground v.1.15,2014-02-15 14:13:00,
2014-02-15 09:15:00,21.7,17.9,30.10,North,349,1.0,2.0,85,0.00,,,0.00,Wunderground v.1.15,2014-02-15 14:15:00,
2014-02-15 09:18:00,21.8,17.7,30.10,WNW,285,1.0,4.0,84,0.00,,,0.00,Wunderground v.1.15,2014-02-15 14:18:00,
2014-02-15 09:22:00,21.7,17.9,30.10,NW,323,0.0,3.0,85,0.00,,,0.00,Wunderground v.1.15,2014-02-15 14:22:00,
2014-02-15 09:25:00,21.7,17.9,30.10,WNW,298,0.0,4.0,85,0.00,,,0.00,Wunderground v.1.15,2014-02-15 14:25:00,
2014-02-15 09:28:00,21.7,17.9,30.10,WNW,290,3.0,7.0,85,0.00,,,0.00,Wunderground v.1.15,2014-02-15 14:28:00,
2014-02-15 09:33:00,22.1,18.3,30.11,West,279,3.0,5.0,85,0.00,,,0.00,Wunderground v.1.15,2014-02-15 14:33:00,
2014-02-15 09:38:00,22.3,18.2,30.11,NW,314,6.0,9.0,84,0.00,,,0.00,Wunderground v.1.15,2014-02-15 14:38:00,
2014-02-15 09:40:00,22.1,17.7,30.11,West,279,7.0,7.0,83,0.00,,,0.00,Wunderground v.1.15,2014-02-15 14:40:00,
2014-02-15 09:43:00,21.8,17.7,30.11,WNW,288,3.0,7.0,84,0.00,,,0.00,Wunderground v.1.15,2014-02-15 14:43:00,
2014-02-15 09:46:00,21.8,17.7,30.13,West,261,5.0,7.0,84,0.00,,,0.00,Wunderground v.1.15,2014-02-15 14:46:00,
2014-02-15 09:50:00,21.7,17.6,30.13,WNW,295,5.0,5.0,84,0.00,,,0.00,Wunderground v.1.15,2014-02-15 14:50:00,
2014-02-15 09:51:00,21.7,17.6,30.13,WNW,299,5.0,6.0,84,0.00,,,0.00,Wunderground v.1.15,2014-02-15 14:51:00,
2014-02-15 09:56:00,21.7,17.6,30.13,WNW,283,4.0,7.0,84,0.00,,,0.00,Wunderground v.1.15,2014-02-15 14:56:00,
2014-02-15 09:59:00,21.9,18.1,30.13,WNW,286,7.0,9.0,85,0.00,,,0.00,Wunderground v.1.15,2014-02-15 14:59:00,
2014-02-15 10:00:00,21.8,17.7,30.14,West,281,4.0,7.0,84,0.00,,,0.00,Wunderground v.1.15,2014-02-15 15:00:00,
2014-02-15 10:01:00,21.9,17.8,30.14,West,279,3.0,7.0,84,0.00,,,0.00,Wunderground v.1.15,2014-02-15 15:01:00,
2014-02-15 10:04:00,21.9,17.8,30.14,WNW,282,2.0,7.0,84,0.00,,,0.00,Wunderground v.1.15,2014-02-15 15:04:00,
2014-02-15 10:09:00,22.2,17.8,30.14,West,275,5.0,7.0,83,0.00,,,0.00,Wunderground v.1.15,2014-02-15 15:09:00,
2014-02-15 10:12:00,22.1,17.7,30.14,West,274,6.0,8.0,83,0.00,,,0.00,Wunderground v.1.15,2014-02-15 15:12:00,
2014-02-15 10:16:00,22.0,17.3,30.14,NW,323,4.0,10.0,82,0.00,,,0.00,Wunderground v.1.15,2014-02-15 15:16:00,
2014-02-15 10:21:00,22.8,18.4,30.14,WNW,289,4.0,7.0,83,0.00,,,0.00,Wunderground v.1.15,2014-02-15 15:21:00,
2014-02-15 10:23:00,23.0,17.7,30.14,West,280,3.0,10.0,80,0.00,,,0.00,Wunderground v.1.15,2014-02-15 15:23:00,
2014-02-15 10:28:00,23.2,18.5,30.14,WSW,256,2.0,10.0,82,0.00,,,0.00,Wunderground v.1.15,2014-02-15 15:28:00,
2014-02-15 10:31:00,23.1,17.8,30.14,NW,309,5.0,9.0,80,0.00,,,0.00,Wunderground v.1.15,2014-02-15 15:31:00,
2014-02-15 10:32:00,23.0,17.7,30.14,WNW,300,5.0,9.0,80,0.00,,,0.00,Wunderground v.1.15,2014-02-15 15:32:00,
2014-02-15 10:34:00,22.8,17.6,30.14,WNW,294,5.0,9.0,80,0.00,,,0.00,Wunderground v.1.15,2014-02-15 15:34:00,
2014-02-15 10:35:00,22.8,17.3,30.14,NW,319,3.0,9.0,79,0.00,,,0.00,Wunderground v.1.15,2014-02-15 15:35:00,
2014-02-15 10:36:00,22.8,17.6,30.14,West,274,6.0,9.0,80,0.00,,,0.00,Wunderground v.1.15,2014-02-15 15:36:00,
2014-02-15 10:39:00,22.9,17.9,30.14,WNW,301,1.0,9.0,81,0.00,,,0.00,Wunderground v.1.15,2014-02-15 15:39:00,
2014-02-15 10:44:00,23.5,18.5,30.14,North,359,5.0,5.0,81,0.00,,,0.00,Wunderground v.1.15,2014-02-15 15:44:00,
2014-02-15 10:46:00,23.7,18.1,30.14,WNW,292,6.0,7.0,79,0.00,,,0.00,Wunderground v.1.15,2014-02-15 15:46:00,
2014-02-15 10:48:00,24.0,18.4,30.14,WNW,302,5.0,7.0,79,0.00,,,0.00,Wunderground v.1.15,2014-02-15 15:48:00,
2014-02-15 10:52:00,24.2,18.3,30.14,NW,310,4.0,5.0,78,0.00,,,0.00,Wunderground v.1.15,2014-02-15 15:52:00,
2014-02-15 10:53:00,24.1,17.9,30.14,NNW,345,4.0,5.0,77,0.00,,,0.00,Wunderground v.1.15,2014-02-15 15:53:00,
2014-02-15 10:55:00,23.8,17.6,30.14,NW,324,1.0,5.0,77,0.00,,,0.00,Wunderground v.1.15,2014-02-15 15:55:00,
2014-02-15 10:57:00,24.0,18.4,30.14,West,277,1.0,5.0,79,0.00,,,0.00,Wunderground v.1.15,2014-02-15 15:57:00,
2014-02-15 10:59:00,24.3,18.7,30.14,West,262,4.0,6.0,79,0.00,,,0.00,Wunderground v.1.15,2014-02-15 15:59:00,
2014-02-15 11:00:00,24.4,18.5,30.14,West,276,7.0,7.0,78,0.00,,,0.00,Wunderground v.1.15,2014-02-15 16:00:00,
2014-02-15 11:05:00,23.9,17.7,30.14,West,280,4.0,7.0,77,0.00,,,0.00,Wunderground v.1.15,2014-02-15 16:05:00,
2014-02-15 11:06:00,23.8,17.9,30.14,NW,307,4.0,7.0,78,0.00,,,0.00,Wunderground v.1.15,2014-02-15 16:06:00,
2014-02-15 11:09:00,23.6,17.4,30.14,West,268,1.0,7.0,77,0.00,,,0.00,Wunderground v.1.15,2014-02-15 16:09:00,
2014-02-15 11:11:00,23.7,17.8,30.14,NW,316,4.0,4.0,78,0.00,,,0.00,Wunderground v.1.15,2014-02-15 16:11:00,
2014-02-15 11:12:00,23.8,18.5,30.14,NW,314,3.0,6.0,80,0.00,,,0.00,Wunderground v.1.15,2014-02-15 16:12:00,
2014-02-15 11:15:00,24.2,18.3,30.14,NW,319,3.0,6.0,78,0.00,,,0.00,Wunderground v.1.15,2014-02-15 16:15:00,
2014-02-15 11:19:00,24.5,18.3,30.15,WNW,283,2.0,6.0,77,0.00,,,0.00,Wunderground v.1.15,2014-02-15 16:19:00,
2014-02-15 11:20:00,24.6,18.4,30.15,NW,309,2.0,3.0,77,0.00,,,0.00,Wunderground v.1.15,2014-02-15 16:20:00,
2014-02-15 11:21:00,24.6,18.4,30.15,NW,309,2.0,3.0,77,0.00,,,0.00,Wunderground v.1.15,2014-02-15 16:21:00,
2014-02-15 11:22:00,24.7,18.5,30.15,WNW,301,3.0,3.0,77,0.00,,,0.00,Wunderground v.1.15,2014-02-15 16:22:00,
2014-02-15 11:25:00,24.8,18.6,30.15,West,271,2.0,5.0,77,0.00,,,0.00,Wunderground v.1.15,2014-02-15 16:25:00,
2014-02-15 11:27:00,25.1,18.6,30.15,NNW,332,3.0,5.0,76,0.00,,,0.00,Wunderground v.1.15,2014-02-15 16:27:00,
2014-02-15 11:29:00,25.2,18.4,30.15,WNW,302,3.0,6.0,75,0.00,,,0.00,Wunderground v.1.15,2014-02-15 16:29:00,
2014-02-15 11:30:00,25.2,19.0,30.14,NNW,332,3.0,6.0,77,0.00,,,0.00,Wunderground v.1.15,2014-02-15 16:30:00,
2014-02-15 11:33:00,25.4,18.3,30.14,WNW,292,3.0,6.0,74,0.00,,,0.00,Wunderground v.1.15,2014-02-15 16:33:00,
2014-02-15 11:38:00,25.5,18.0,30.14,WSW,254,0.0,6.0,73,0.00,,,0.00,Wunderground v.1.15,2014-02-15 16:38:00,
2014-02-15 11:39:00,25.6,18.8,30.14,WNW,299,2.0,6.0,75,0.00,,,0.00,Wunderground v.1.15,2014-02-15 16:39:00,
2014-02-15 11:41:00,25.8,18.7,30.14,North,351,2.0,3.0,74,0.00,,,0.00,Wunderground v.1.15,2014-02-15 16:41:00,
2014-02-15 11:42:00,26.0,19.8,30.14,NNW,337,4.0,5.0,77,0.00,,,0.00,Wunderground v.1.15,2014-02-15 16:42:00,
2014-02-15 11:43:00,26.2,20.0,30.14,NNE,27,2.0,5.0,77,0.00,,,0.00,Wunderground v.1.15,2014-02-15 16:43:00,
2014-02-15 11:44:00,26.3,20.1,30.14,NNW,335,5.0,5.0,77,0.00,,,0.00,Wunderground v.1.15,2014-02-15 16:44:00,
2014-02-15 11:45:00,26.5,19.3,30.13,North,356,3.0,5.0,74,0.00,,,0.00,Wunderground v.1.15,2014-02-15 16:45:00,
2014-02-15 11:48:00,26.7,19.2,30.13,NW,307,4.0,5.0,73,0.00,,,0.00,Wunderground v.1.15,2014-02-15 16:48:00,
2014-02-15 11:49:00,26.8,19.0,30.13,WNW,296,2.0,5.0,72,0.00,,,0.00,Wunderground v.1.15,2014-02-15 16:49:00,
2014-02-15 11:50:00,26.8,19.0,30.13,NW,313,3.0,3.0,72,0.00,,,0.00,Wunderground v.1.15,2014-02-15 16:50:00,
2014-02-15 11:54:00,26.9,18.7,30.13,NNW,335,0.0,6.0,71,0.00,,,0.00,Wunderground v.1.15,2014-02-15 16:54:00,
2014-02-15 11:55:00,27.0,18.8,30.13,NW,319,2.0,6.0,71,0.00,,,0.00,Wunderground v.1.15,2014-02-15 16:55:00,
2014-02-15 12:00:00,27.3,20.1,30.13,North,1,2.0,2.0,74,0.00,,,0.00,Wunderground v.1.15,2014-02-15 17:00:00,
2014-02-15 12:05:00,27.2,18.7,30.14,North,6,2.0,9.0,70,0.00,,,0.00,Wunderground v.1.15,2014-02-15 17:05:00,
2014-02-15 12:10:00,27.4,19.2,30.14,NNW,328,3.0,5.0,71,0.00,,,0.00,Wunderground v.1.15,2014-02-15 17:10:00,
2014-02-15 12:15:00,27.8,19.9,30.14,NNE,29,1.0,5.0,72,0.00,,,0.00,Wunderground v.1.15,2014-02-15 17:15:00,
2014-02-15 12:20:00,28.0,19.8,30.14,WNW,283,4.0,4.0,71,0.00,,,0.00,Wunderground v.1.15,2014-02-15 17:20:00,
2014-02-15 12:25:00,27.8,19.9,30.14,NNW,343,2.0,4.0,72,0.00,,,0.00,Wunderground v.1.15,2014-02-15 17:25:00,
2014-02-15 12:30:00,28.1,18.9,30.15,NW,314,2.0,3.0,68,0.00,,,0.00,Wunderground v.1.15,2014-02-15 17:30:00,
2014-02-15 12:35:00,28.3,19.4,30.15,WNW,300,1.0,4.0,69,0.00,,,0.00,Wunderground v.1.15,2014-02-15 17:35:00,
2014-02-15 12:40:00,27.9,19.0,30.15,West,272,3.0,5.0,69,0.00,,,0.00,Wunderground v.1.15,2014-02-15 17:40:00,
2014-02-15 12:45:00,28.1,19.6,30.14,WSW,250,1.0,5.0,70,0.00,,,0.00,Wunderground v.1.15,2014-02-15 17:45:00,
2014-02-15 12:50:00,28.7,20.1,30.14,West,272,5.0,6.0,70,0.00,,,0.00,Wunderground v.1.15,2014-02-15 17:50:00,
2014-02-15 12:55:00,28.6,20.1,30.14,West,269,0.0,6.0,70,0.00,,,0.00,Wunderground v.1.15,2014-02-15 17:55:00,
2014-02-15 13:00:00,29.4,20.8,30.14,NW,304,1.0,2.0,70,0.00,,,0.00,Wunderground v.1.15,2014-02-15 18:00:00,
2014-02-15 13:05:00,29.5,20.2,30.14,SSW,202,4.0,8.0,68,0.00,,,0.00,Wunderground v.1.15,2014-02-15 18:05:00,
2014-02-15 13:10:00,29.9,22.0,30.14,SW,234,3.0,4.0,72,0.00,,,0.00,Wunderground v.1.15,2014-02-15 18:10:00,
2014-02-15 13:15:00,30.0,20.7,30.14,WSW,244,3.0,7.0,68,0.00,,,0.00,Wunderground v.1.15,2014-02-15 18:15:00,
2014-02-15 13:20:00,29.8,21.2,30.14,WNW,295,1.0,4.0,70,0.00,,,0.00,Wunderground v.1.15,2014-02-15 18:20:00,
2014-02-15 13:25:00,30.1,20.8,30.14,West,265,3.0,6.0,68,0.00,,,0.00,Wunderground v.1.15,2014-02-15 18:25:00,
2014-02-15 13:30:00,30.2,20.2,30.14,NW,304,5.0,8.0,66,0.00,,,0.00,Wunderground v.1.15,2014-02-15 18:30:00,
2014-02-15 13:35:00,30.1,19.4,30.14,WNW,303,4.0,9.0,64,0.00,,,0.00,Wunderground v.1.15,2014-02-15 18:35:00,
2014-02-15 13:40:00,30.5,20.5,30.14,SW,219,5.0,6.0,66,0.00,,,0.00,Wunderground v.1.15,2014-02-15 18:40:00,
2014-02-15 13:45:00,30.9,21.2,30.15,NNW,336,3.0,10.0,67,0.00,,,0.00,Wunderground v.1.15,2014-02-15 18:45:00,
2014-02-15 13:50:00,31.2,21.2,30.15,SSW,212,3.0,6.0,66,0.00,,,0.00,Wunderground v.1.15,2014-02-15 18:50:00,
2014-02-15 13:55:00,31.3,21.3,30.15,West,276,6.0,9.0,66,0.00,,,0.00,Wunderground v.1.15,2014-02-15 18:55:00,
2014-02-15 14:00:00,31.2,21.5,30.16,NW,305,3.0,6.0,67,0.00,,,0.00,Wunderground v.1.15,2014-02-15 19:00:00,
2014-02-15 14:05:00,31.1,21.1,30.16,SSW,202,6.0,10.0,66,0.00,,,0.00,Wunderground v.1.15,2014-02-15 19:05:00,
2014-02-15 14:10:00,31.2,21.5,30.16,SW,227,1.0,5.0,67,0.00,,,0.00,Wunderground v.1.15,2014-02-15 19:10:00,
2014-02-15 14:15:00,31.5,21.4,30.16,WSW,255,5.0,11.0,66,0.00,,,0.00,Wunderground v.1.15,2014-02-15 19:15:00,
2014-02-15 14:20:00,31.5,21.4,30.16,West,265,3.0,4.0,66,0.00,,,0.00,Wunderground v.1.15,2014-02-15 19:20:00,
2014-02-15 14:25:00,32.0,21.9,30.16,NW,321,3.0,9.0,66,0.00,,,0.00,Wunderground v.1.15,2014-02-15 19:25:00,
2014-02-15 14:30:00,32.3,21.5,30.16,West,270,4.0,9.0,64,0.00,,,0.00,Wunderground v.1.15,2014-02-15 19:30:00,
2014-02-15 14:35:00,32.6,23.2,30.16,NW,304,3.0,9.0,68,0.00,,,0.00,Wunderground v.1.15,2014-02-15 19:35:00,
2014-02-15 14:40:00,32.6,21.4,30.16,WNW,297,4.0,4.0,63,0.00,,,0.00,Wunderground v.1.15,2014-02-15 19:40:00,
2014-02-15 14:45:00,32.7,21.5,30.15,NW,316,2.0,10.0,63,0.00,,,0.00,Wunderground v.1.15,2014-02-15 19:45:00,
2014-02-15 14:50:00,33.1,21.5,30.15,West,281,7.0,7.0,62,0.00,,,0.00,Wunderground v.1.15,2014-02-15 19:50:00,
2014-02-15 14:55:00,33.4,21.0,30.15,West,272,5.0,8.0,60,0.00,,,0.00,Wunderground v.1.15,2014-02-15 19:55:00,
2014-02-15 15:00:00,33.4,21.4,30.17,NW,310,6.0,9.0,61,0.00,,,0.00,Wunderground v.1.15,2014-02-15 20:00:00,
2014-02-15 15:05:00,33.5,21.1,30.17,North,359,1.0,11.0,60,0.00,,,0.00,Wunderground v.1.15,2014-02-15 20:05:00,
2014-02-15 15:10:00,34.1,20.9,30.17,NW,308,3.0,6.0,58,0.00,,,0.00,Wunderground v.1.15,2014-02-15 20:10:00,
2014-02-15 15:16:00,34.3,21.8,30.15,NW,319,2.0,6.0,60,0.00,,,0.00,Wunderground v.1.15,2014-02-15 20:16:00,
2014-02-15 15:21:00,34.9,22.0,30.15,WNW,288,3.0,5.0,59,0.00,,,0.00,Wunderground v.1.15,2014-02-15 20:21:00,
2014-02-15 15:26:00,34.7,21.8,30.15,WNW,285,2.0,6.0,59,0.00,,,0.00,Wunderground v.1.15,2014-02-15 20:26:00,
2014-02-15 15:31:00,35.1,23.0,30.15,West,272,1.0,3.0,61,0.00,,,0.00,Wunderground v.1.15,2014-02-15 20:31:00,
2014-02-15 15:36:00,35.2,21.9,30.15,West,259,5.0,7.0,58,0.00,,,0.00,Wunderground v.1.15,2014-02-15 20:36:00,
2014-02-15 15:41:00,35.0,21.3,30.15,West,269,2.0,2.0,57,0.00,,,0.00,Wunderground v.1.15,2014-02-15 20:41:00,
2014-02-15 15:46:00,35.2,21.1,30.15,West,278,2.0,7.0,56,0.00,,,0.00,Wunderground v.1.15,2014-02-15 20:46:00,
2014-02-15 15:51:00,35.7,20.7,30.15,West,278,5.0,5.0,54,0.00,,,0.00,Wunderground v.1.15,2014-02-15 20:51:00,
2014-02-15 15:56:00,35.7,21.1,30.15,NW,321,4.0,7.0,55,0.00,,,0.00,Wunderground v.1.15,2014-02-15 20:56:00,
2014-02-15 16:01:00,35.7,20.7,30.16,WSW,248,1.0,4.0,54,0.00,,,0.00,Wunderground v.1.15,2014-02-15 21:01:00,
2014-02-15 16:06:00,36.0,20.9,30.16,NNW,348,3.0,4.0,54,0.00,,,0.00,Wunderground v.1.15,2014-02-15 21:06:00,
2014-02-15 16:11:00,36.3,20.8,30.16,NW,312,2.0,4.0,53,0.00,,,0.00,Wunderground v.1.15,2014-02-15 21:11:00,
2014-02-15 16:16:00,36.3,20.3,30.15,South,181,2.0,6.0,52,0.00,,,0.00,Wunderground v.1.15,2014-02-15 21:16:00,
2014-02-15 16:21:00,36.2,20.7,30.15,WNW,303,3.0,5.0,53,0.00,,,0.00,Wunderground v.1.15,2014-02-15 21:21:00,
2014-02-15 16:26:00,36.2,21.1,30.15,WNW,293,1.0,5.0,54,0.00,,,0.00,Wunderground v.1.15,2014-02-15 21:26:00,
2014-02-15 16:31:00,36.2,20.2,30.14,NW,321,2.0,4.0,52,0.00,,,0.00,Wunderground v.1.15,2014-02-15 21:31:00,
2014-02-15 16:36:00,36.4,20.9,30.14,SSW,210,5.0,6.0,53,0.00,,,0.00,Wunderground v.1.15,2014-02-15 21:36:00,
2014-02-15 16:41:00,36.4,20.4,30.14,SSE,158,4.0,4.0,52,0.00,,,0.00,Wunderground v.1.15,2014-02-15 21:41:00,
2014-02-15 16:46:00,36.4,21.8,30.15,WNW,290,5.0,7.0,55,0.00,,,0.00,Wunderground v.1.15,2014-02-15 21:46:00,
2014-02-15 16:51:00,35.9,20.9,30.15,SSW,200,2.0,3.0,54,0.00,,,0.00,Wunderground v.1.15,2014-02-15 21:51:00,
2014-02-15 16:56:00,35.9,21.7,30.15,WSW,248,2.0,6.0,56,0.00,,,0.00,Wunderground v.1.15,2014-02-15 21:56:00,
2014-02-15 17:01:00,35.8,21.6,30.16,West,266,2.0,3.0,56,0.00,,,0.00,Wunderground v.1.15,2014-02-15 22:01:00,
2014-02-15 17:06:00,35.9,20.9,30.16,West,276,4.0,5.0,54,0.00,,,0.00,Wunderground v.1.15,2014-02-15 22:06:00,
2014-02-15 17:11:00,35.7,20.2,30.16,WSW,245,2.0,4.0,53,0.00,,,0.00,Wunderground v.1.15,2014-02-15 22:11:00,
2014-02-15 17:16:00,35.7,20.2,30.16,WSW,240,3.0,5.0,53,0.00,,,0.00,Wunderground v.1.15,2014-02-15 22:16:00,
2014-02-15 17:21:00,35.4,19.0,30.16,WNW,288,4.0,6.0,51,0.00,,,0.00,Wunderground v.1.15,2014-02-15 22:21:00,
2014-02-15 17:26:00,35.2,18.9,30.16,WSW,255,1.0,6.0,51,0.00,,,0.00,Wunderground v.1.15,2014-02-15 22:26:00,
2014-02-15 17:31:00,35.1,18.8,30.16,West,264,2.0,2.0,51,0.00,,,0.00,Wunderground v.1.15,2014-02-15 22:31:00,
2014-02-15 17:36:00,35.0,18.2,30.16,WNW,288,1.0,4.0,50,0.00,,,0.00,Wunderground v.1.15,2014-02-15 22:36:00,
2014-02-15 17:41:00,34.8,18.0,30.16,WNW,301,2.0,3.0,50,0.00,,,0.00,Wunderground v.1.15,2014-02-15 22:41:00,
2014-02-15 17:46:00,34.7,18.4,30.16,WNW,302,2.0,5.0,51,0.00,,,0.00,Wunderground v.1.15,2014-02-15 22:46:00,
2014-02-15 17:51:00,34.5,18.2,30.16,West,277,2.0,4.0,51,0.00,,,0.00,Wunderground v.1.15,2014-02-15 22:51:00,
2014-02-15 17:56:00,34.3,18.5,30.16,West,266,3.0,4.0,52,0.00,,,0.00,Wunderground v.1.15,2014-02-15 22:56:00,
2014-02-15 18:01:00,34.2,19.3,30.18,WNW,288,2.0,4.0,54,0.00,,,0.00,Wunderground v.1.15,2014-02-15 23:01:00,
2014-02-15 18:06:00,34.1,19.2,30.18,NW,318,1.0,4.0,54,0.00,,,0.00,Wunderground v.1.15,2014-02-15 23:06:00,
2014-02-15 18:11:00,34.1,20.0,30.18,NW,318,1.0,2.0,56,0.00,,,0.00,Wunderground v.1.15,2014-02-15 23:11:00,
2014-02-15 18:16:00,34.0,20.3,30.18,NW,318,2.0,3.0,57,0.00,,,0.00,Wunderground v.1.15,2014-02-15 23:16:00,
2014-02-15 18:22:00,33.9,19.4,30.18,NW,318,1.0,2.0,55,0.00,,,0.00,Wunderground v.1.15,2014-02-15 23:22:00,
2014-02-15 18:27:00,33.8,19.7,30.18,West,278,1.0,2.0,56,0.00,,,0.00,Wunderground v.1.15,2014-02-15 23:27:00,
2014-02-15 18:32:00,33.7,20.1,30.18,NW,316,1.0,2.0,57,0.00,,,0.00,Wunderground v.1.15,2014-02-15 23:32:00,
2014-02-15 19:13:00,32.9,20.1,30.19,WNW,283,0.0,1.0,59,0.00,,,0.00,Wunderground v.1.15,2014-02-16 00:13:00,
2014-02-15 19:18:00,32.8,20.0,30.17,WNW,283,1.0,1.0,59,0.00,,,0.00,Wunderground v.1.15,2014-02-16 00:18:00,
2014-02-15 19:24:00,32.5,21.7,30.17,WNW,282,2.0,2.0,64,0.00,,,0.00,Wunderground v.1.15,2014-02-16 00:24:00,
2014-02-15 19:29:00,32.4,20.0,30.17,WNW,282,1.0,2.0,60,0.00,,,0.00,Wunderground v.1.15,2014-02-16 00:29:00,
2014-02-15 19:34:00,32.5,21.3,30.18,WNW,282,2.0,2.0,63,0.00,,,0.00,Wunderground v.1.15,2014-02-16 00:34:00,
2014-02-15 19:39:00,32.5,21.7,30.18,WNW,282,0.0,2.0,64,0.00,,,0.00,Wunderground v.1.15,2014-02-16 00:39:00,
2014-02-15 19:44:00,32.5,20.5,30.18,WNW,282,1.0,1.0,61,0.00,,,0.00,Wunderground v.1.15,2014-02-16 00:44:00,
2014-02-15 19:49:00,32.4,21.2,30.19,North,359,1.0,2.0,63,0.00,,,0.00,Wunderground v.1.15,2014-02-16 00:49:00,
2014-02-15 19:58:00,32.1,20.9,30.19,ENE,68,2.0,2.0,63,0.00,,,0.00,Wunderground v.1.15,2014-02-16 00:58:00,
2014-02-15 20:03:00,32.1,20.9,30.17,East,86,2.0,4.0,63,0.00,,,0.00,Wunderground v.1.15,2014-02-16 01:03:00,
2014-02-15 20:08:00,32.0,21.2,30.17,ESE,113,1.0,4.0,64,0.00,,,0.00,Wunderground v.1.15,2014-02-16 01:08:00,
2014-02-15 20:13:00,31.9,21.1,30.17,ESE,113,2.0,4.0,64,0.00,,,0.00,Wunderground v.1.15,2014-02-16 01:13:00,
2014-02-15 20:18:00,31.8,21.4,30.16,ESE,108,2.0,4.0,65,0.00,,,0.00,Wunderground v.1.15,2014-02-16 01:18:00,
2014-02-15 20:23:00,31.8,21.4,30.16,ESE,108,1.0,2.0,65,0.00,,,0.00,Wunderground v.1.15,2014-02-16 01:23:00,
2014-02-15 20:28:00,31.8,21.7,30.16,ESE,108,0.0,2.0,66,0.00,,,0.00,Wunderground v.1.15,2014-02-16 01:28:00,
2014-02-15 20:33:00,31.7,22.3,30.19,ESE,108,1.0,1.0,68,0.00,,,0.00,Wunderground v.1.15,2014-02-16 01:33:00,
2014-02-15 20:38:00,31.7,22.0,30.19,ESE,108,0.0,1.0,67,0.00,,,0.00,Wunderground v.1.15,2014-02-16 01:38:00,
2014-02-15 20:43:00,31.7,22.0,30.19,ESE,108,0.0,0.0,67,0.00,,,0.00,Wunderground v.1.15,2014-02-16 01:43:00,
2014-02-15 20:48:00,31.7,21.3,30.19,ESE,108,0.0,0.0,65,0.00,,,0.00,Wunderground v.1.15,2014-02-16 01:48:00,
2014-02-15 20:53:00,31.7,22.0,30.19,ESE,108,1.0,1.0,67,0.00,,,0.00,Wunderground v.1.15,2014-02-16 01:53:00,
2014-02-15 20:58:00,31.7,22.0,30.19,ESE,108,0.0,1.0,67,0.00,,,0.00,Wunderground v.1.15,2014-02-16 01:58:00,
2014-02-15 21:03:00,31.7,23.0,30.18,ESE,108,1.0,2.0,70,0.00,,,0.00,Wunderground v.1.15,2014-02-16 02:03:00,
2014-02-15 21:08:00,31.5,22.8,30.18,ESE,108,2.0,2.0,70,0.00,,,0.00,Wunderground v.1.15,2014-02-16 02:08:00,
2014-02-15 21:13:00,31.4,22.4,30.18,ESE,108,1.0,1.0,69,0.00,,,0.00,Wunderground v.1.15,2014-02-16 02:13:00,
2014-02-15 21:19:00,31.2,21.5,30.17,ESE,108,1.0,2.0,67,0.00,,,0.00,Wunderground v.1.15,2014-02-16 02:19:00,
2014-02-15 21:24:00,31.1,21.8,30.17,ESE,108,1.0,2.0,68,0.00,,,0.00,Wunderground v.1.15,2014-02-16 02:24:00,
2014-02-15 21:29:00,30.9,21.2,30.17,ESE,108,0.0,2.0,67,0.00,,,0.00,Wunderground v.1.15,2014-02-16 02:29:00,
2014-02-15 21:34:00,30.8,21.1,30.16,ESE,108,0.0,1.0,67,0.00,,,0.00,Wunderground v.1.15,2014-02-16 02:34:00,
2014-02-15 21:39:00,30.8,21.5,30.16,ESE,108,0.0,1.0,68,0.00,,,0.00,Wunderground v.1.15,2014-02-16 02:39:00,
2014-02-15 21:44:00,30.7,21.4,30.16,ESE,108,0.0,1.0,68,0.00,,,0.00,Wunderground v.1.15,2014-02-16 02:44:00,
2014-02-15 21:49:00,30.6,20.9,30.16,ESE,108,1.0,1.0,67,0.00,,,0.00,Wunderground v.1.15,2014-02-16 02:49:00,
2014-02-15 21:54:00,30.7,21.0,30.16,ESE,108,0.0,1.0,67,0.00,,,0.00,Wunderground v.1.15,2014-02-16 02:54:00,
2014-02-15 21:59:00,30.7,21.0,30.16,ESE,108,0.0,1.0,67,0.00,,,0.00,Wunderground v.1.15,2014-02-16 02:59:00,
2014-02-15 22:04:00,30.7,20.7,30.15,ESE,108,0.0,1.0,66,0.00,,,0.00,Wunderground v.1.15,2014-02-16 03:04:00,
2014-02-15 22:09:00,30.7,21.7,30.15,ESE,108,0.0,1.0,69,0.00,,,0.00,Wunderground v.1.15,2014-02-16 03:09:00,
2014-02-15 22:14:00,30.7,21.4,30.15,ESE,108,0.0,0.0,68,0.00,,,0.00,Wunderground v.1.15,2014-02-16 03:14:00,
2014-02-15 22:19:00,30.8,21.5,30.17,ESE,108,0.0,1.0,68,0.00,,,0.00,Wunderground v.1.15,2014-02-16 03:19:00,
2014-02-15 22:24:00,30.9,21.9,30.17,ESE,108,1.0,2.0,69,0.00,,,0.00,Wunderground v.1.15,2014-02-16 03:24:00,
2014-02-15 22:29:00,31.1,21.1,30.17,ESE,108,0.0,2.0,66,0.00,,,0.00,Wunderground v.1.15,2014-02-16 03:29:00,
2014-02-15 22:34:00,31.3,21.6,30.18,ESE,108,0.0,0.0,67,0.00,,,0.00,Wunderground v.1.15,2014-02-16 03:34:00,
2014-02-15 22:39:00,31.5,21.1,30.18,ESE,108,1.0,1.0,65,0.00,,,0.00,Wunderground v.1.15,2014-02-16 03:39:00,
2014-02-15 22:44:00,31.5,21.4,30.18,ESE,108,0.0,0.0,66,0.00,,,0.00,Wunderground v.1.15,2014-02-16 03:44:00,
2014-02-15 22:49:00,31.5,21.1,30.17,ESE,108,0.0,2.0,65,0.00,,,0.00,Wunderground v.1.15,2014-02-16 03:49:00,
2014-02-15 22:54:00,31.4,21.7,30.17,ESE,108,0.0,2.0,67,0.00,,,0.00,Wunderground v.1.15,2014-02-16 03:54:00,
2014-02-15 22:59:00,31.4,22.1,30.17,ESE,108,0.0,2.0,68,0.00,,,0.00,Wunderground v.1.15,2014-02-16 03:59:00,
2014-02-15 23:04:00,31.4,21.3,30.16,ESE,108,1.0,2.0,66,0.00,,,0.00,Wunderground v.1.15,2014-02-16 04:04:00,
2014-02-15 23:09:00,31.4,22.4,30.16,ESE,108,0.0,2.0,69,0.00,,,0.00,Wunderground v.1.15,2014-02-16 04:09:00,
2014-02-15 23:14:00,31.4,22.4,30.16,East,87,1.0,2.0,69,0.00,,,0.00,Wunderground v.1.15,2014-02-16 04:14:00,
2014-02-15 23:19:00,31.3,22.3,30.16,North,1,2.0,2.0,69,0.00,,,0.00,Wunderground v.1.15,2014-02-16 04:19:00,
2014-02-15 23:24:00,31.3,22.3,30.16,North,1,0.0,2.0,69,0.00,,,0.00,Wunderground v.1.15,2014-02-16 04:24:00,
2014-02-15 23:29:00,31.2,21.9,30.16,North,1,0.0,2.0,68,0.00,,,0.00,Wunderground v.1.15,2014-02-16 04:29:00,
2014-02-15 23:34:00,31.2,23.5,30.16,North,1,0.0,1.0,73,0.00,,,0.00,Wunderground v.1.15,2014-02-16 04:34:00,
2014-02-15 23:39:00,31.1,21.8,30.16,North,1,1.0,1.0,68,0.00,,,0.00,Wunderground v.1.15,2014-02-16 04:39:00,
2014-02-15 23:44:00,31.1,22.8,30.16,WSW,248,3.0,3.0,71,0.00,,,0.00,Wunderground v.1.15,2014-02-16 04:44:00,
2014-02-15 23:49:00,31.1,23.1,30.16,WSW,248,0.0,3.0,72,0.00,,,0.00,Wunderground v.1.15,2014-02-16 04:49:00,
2014-02-15 23:54:00,31.0,22.0,30.16,WSW,248,1.0,2.0,69,0.00,,,0.00,Wunderground v.1.15,2014-02-16 04:54:00,
2014-02-15 23:59:00,31.1,23.1,30.16,WSW,248,2.0,2.0,72,0.00,,,0.00,Wunderground v.1.15,2014-02-16 04:59:00,